Regional Weather Roundup
Issued by NWS

Home | Current Version | Previous Version | Text Only | Print | Product List | Glossary On
Versions: 1 2 3 4 5 6 7 8 9 10 11 12 13 14 15 16 17 18 19 20 21 22 23 24 25 26 27 28 29 30 31 32 33 34 35 36 37 38 39 40 41 42 43 44 45 46 47 48 49 50
000
ASUS43 KDMX 161906
RWRIA

WEATHER ROUNDUP FOR IOWA
NATIONAL WEATHER SERVICE DES MOINES IA
200 PM CDT MON MAY 16 2022

NOTE: "FAIR" INDICATES FEW OR NO CLOUDS BELOW 12,000 FEET WITH NO
SIGNIFICANT WEATHER AND/OR OBSTRUCTIONS TO VISIBILITY.

* - THESE STATIONS ARE NOT NWS STATIONS...THUS NOT UNDER NWS
QUALITY CONTROL.  THEY ALSO DO NOT REPORT WEATHER SUCH
AS PRECIPITATION OR FOG.

IAZ001>003-012>014-020>022-031>034-043>046-162000-
   NORTHWEST IOWA

CITY           SKY/WX    TMP DP  RH WIND       PRES   REMARKS
CARROLL *      MOSUNNY   79  37  22 W15G24    29.96F
CHEROKEE *     MOSUNNY   78  41  26 W8G18     29.96F
DENISON *      SUNNY     79  41  25 W10G22    29.98F HAZE
LE MARS *      SUNNY     79  39  24 W10G17    29.95F
MAURICE *      FAIR      79  37  22 NW14G23   29.95
SHELDON *      SUNNY     77  28  16 NW13G25   29.95F
SIOUX CITY     MOSUNNY   80  47  31 W10G20    29.96F
SPENCER        SUNNY     78  37  22 MISG      29.97F
STORM LAKE *   SUNNY     77  36  22 NW8G16    29.97F
$$

IAZ055>058-069>071-079>083-090>094-162000-
   SOUTHWEST IOWA

CITY           SKY/WX    TMP DP  RH WIND       PRES   REMARKS
ATLANTIC *     MOSUNNY   79  50  36 W15G21    29.97F
AUDUBON *      CLOUDY    79  43  27 W8        29.99F
CLARINDA *     SUNNY     79  46  31 W10G17    30.02F
COUNCIL BLFS * MOSUNNY   77  39  25 W15       29.97
CRESTON *      MOSUNNY   75  45  33 VRB7G17   30.00F
HARLAN  *      MOSUNNY   79  48  34 W20G26    29.98F
LAMONI         MOSUNNY   76  46  34 NW12G18   30.01F
RED OAK *      SUNNY     81  41  24 W10G22    29.99F
SHENANDOAH *   SUNNY     81  45  28 SW16      29.98F
$$

IAZ047>049-059>061-072>074-084-162000-
   CENTRAL IOWA

CITY           SKY/WX    TMP DP  RH WIND       PRES   REMARKS
AMES           MOSUNNY   80  39  23 W17G33    29.95F
ANKENY *       SUNNY     77  43  29 NW13      29.97F
BOONE *        MOSUNNY   77  41  27 NW17G23   29.97F
CHARITON *     MOSUNNY   77  46  33 W12G20    29.98
DES MOINES     MOSUNNY   79  41  25 W12       29.96F
GRINNELL*      MOSUNNY   81  35  18 W12G24    29.96F
KNOXVILLE *    MOSUNNY   77  39  25 W14G22    29.97F
MARSHALLTOWN   MOSUNNY   78  36  21 NW17G33   29.93F
NEWTON *       SUNNY     81  34  18 W18G25    29.95F
PELLA *        MOSUNNY   78  41  26 NW9G17    29.97F
PERRY *        FAIR      80  35  19 NW8G20    29.96F
$$

IAZ004>006-015-016-023>025-035-036-162000-
   NORTH CENTRAL IOWA

CITY           SKY/WX    TMP DP  RH WIND       PRES   REMARKS
ALGONA *       SUNNY     77  37  24 NW20G29   29.94F
CLARION *      MOSUNNY   77  37  24 W21G29    29.94F
ESTHERVILLE    SUNNY     78  36  21 NW20G30   29.96F
FORT DODGE *   SUNNY     78  37  22 NW12G17   29.96F
MASON CITY     MOSUNNY   77  35  21 NW21G40   29.94F
FOREST CITY *  FAIR      75  32  20 W18G31    29.94F
WEBSTER CITY * SUNNY     79  36  21 NW12G25   29.93F
IOWA FALLS *   FAIR      79  36  21 W20G31    29.96S
$$

IAZ007>011-017>019-026>030-037>042-050>054-066-162000-
   NORTHEAST IOWA

CITY           SKY/WX    TMP DP  RH WIND       PRES   REMARKS
CEDAR RAPIDS   MOSUNNY   76  36  23 NW24G35   29.91F
CHARLES CITY * SUNNY     75  36  23 NW25G35   29.92F
CLINTON *      MOSUNNY   78  40  25 NW20G35   29.90F
DECORAH *      MOSUNNY   73  34  23 NW15G25   29.88F
DUBUQUE        MOSUNNY   75  42  30 NW20G33   29.90F
MONTICELLO *   MOSUNNY   77  36  22 NW23G33   29.89S
OELWEIN *      SUNNY     77  32  19 NW36G46   29.91F
WATERLOO       MOSUNNY   78  36  21 NW23G37   29.91F
$$

IAZ064-065-067-068-078-162000-
   EAST CENTRAL IOWA

CITY           SKY/WX    TMP DP  RH WIND       PRES   REMARKS
DAVENPORT      SUNNY     81  35  19 NW26G45   29.92S
IOWA CITY      MOSUNNY   80  36  20 NW14G31   29.93F
MT. PLEASANT * SUNNY     79  37  22 NW16G30   29.95F
MUSCATINE *    SUNNY     81  36  19 NW21G33   29.93S
QUAD CITIES    SUNNY     79  40  24 NW17G35   29.89F
$$

IAZ062-063-075>077-085>089-095>099-162000-
   SOUTHEAST IOWA

CITY           SKY/WX    TMP DP  RH WIND       PRES   REMARKS
BURLINGTON     MOSUNNY   78  41  26 NW16G29   29.95F
FAIRFIELD *    MOSUNNY   79  36  21 NW13G22   29.95F
FORT MADISON *   N/A     79  43  27 NW16G24   29.95S
KEOKUK *       SUNNY     77  46  33 NW16G29   29.96S
OSKALOOSA *    FAIR      83  34  17 NW15G25   29.97  HX  81
CENTERVILLE *  FAIR      77  41  27 W18       30.00F
OTTUMWA        MOSUNNY   78  42  27 W15G30    29.96F
WASHINGTON *   SUNNY     79  37  22 NW22G29   29.93F
$$

ABBREVIATIONS USED IN REMARKS
   TC - TEMPERATURES IN CELSIUS
  WCI - WIND CHILL INDEX
   HX - HEAT INDEX
  VSB - VISIBILITY
$$




USA.gov is the U.S. government's official web portal to all federal, state and local government web resources and services.